# Land Stadt Wetter Temperatur Luftdruck Luftfeuchtigkeit Sichtweite Windgeschwindigkeit Windrichtung Ortszeit
1 kr Seoul Clouds 23 1017 32 10000 6 260 02.08.2018 14:21
2 bg Warna Clouds 17 1020 42 10000 22 120 02.08.2018 14:21
3 jp Nagasaki Clear 20 1016 49 10000 9 360 02.08.2018 14:21
4 mg Antananarivo Clouds 24 1021 60 10000 19 130 02.08.2018 14:21
5 de Trier Clear 9 1023 46 10000 15 90 02.08.2018 14:21
6 de München Clouds 12 1018 66 10000 5 316 02.08.2018 14:21
7 de Hamburg Clouds 9 1020 57 10000 33 290 02.08.2018 14:21
8 au Alice Springs Clear 18 1020 29 10000 15 150 02.08.2018 14:21
9 fj Suva Clouds 25 1013 88 10000 6 220 02.08.2018 14:21
10 de Berlin Clouds 11 1018 53 10000 32 280 02.08.2018 14:21
11 bg Sofia Clouds 17 1020 34 10000 7 0 02.08.2018 14:21
12 fi Rovaniemi Clear 6 1001 49 10000 6 360 02.08.2018 14:21
13 gb Glasgow Clouds 12 1027 58 10000 17 230 02.08.2018 14:21
14 cn Shanghai Rain 20 1010 88 10000 14 160 02.08.2018 14:21
15 vn Hanoi Clouds 30 1005 74 10000 20 120 02.08.2018 14:21
16 au Perth Clear 21 1021 45 10000 9 140 02.08.2018 14:21
17 pg Port Moresby Clouds 26 1010 83 10000 3 86 02.08.2018 14:21
18 it Mailand Clouds 17 1020 63 10000 4 0 02.08.2018 14:21
19 de Emden Clouds 9 1025 65 10000 13 253 02.08.2018 14:21
20 de Hiddensee Clear 11 1018 53 10000 32 303 02.08.2018 14:21
21 de Flensburg Clouds 9 1019 61 10000 56 320 02.08.2018 14:21
22 gb Manchester Clouds 13 1028 46 10000 6 0 02.08.2018 14:21
23 ph Manila Clouds 29 1004 74 10000 24 240 02.08.2018 14:21
24 fr Bordeaux Clear 19 1016 45 10000 20 120 02.08.2018 14:21
25 de Köln Clouds 9 1025 46 10000 11 0 02.08.2018 14:21
26 us Las Vegas Clear 16 1006 31 10000 14 290 02.08.2018 14:21
27 de Kassel Clouds 8 1023 53 10000 26 310 02.08.2018 14:21
28 ua Kiew Clouds 16 1015 47 10000 18 200 02.08.2018 14:21
29 fi Helsinki Clouds 10 1003 50 10000 19 200 02.08.2018 14:21
30 mx Mexiko Stadt Clouds 13 1026 71 10000 9 60 02.08.2018 14:21
31 ie Dublin Clouds 13 1026 62 10000 17 140 02.08.2018 14:21
32 es Las Palmas de Gran Canaria Clouds 22 1017 56 10000 22 40 02.08.2018 14:21
33 sa Riad Clear 39 1014 6 10000 6 0 02.08.2018 14:21
34 ae Dubai Clear 38 1010 12 10000 20 320 02.08.2018 14:21
35 af Kabul Clear 18 1019 20 10000 28 10 02.08.2018 14:21
36 us Tucson Clear 16 1011 19 10000 6 0 02.08.2018 14:21
37 mx Veracruz Clouds 23 1012 60 10000 6 334 02.08.2018 14:21
38 de Braunschweig Clouds 10 1021 57 10000 26 300 02.08.2018 14:21
39 es Tarifa Clouds 19 1015 77 10000 15 220 02.08.2018 14:21
40 do Santo Domingo Clouds 24 1015 88 10000 7 360 02.08.2018 14:21
41 br Manaus Clouds 25 1011 94 10000 6 40 02.08.2018 14:21
42 th Bangkok Clouds 32 1004 64 10000 15 194 02.08.2018 14:21
43 in Nagpur Haze 38 1008 12 4000 4 360 02.08.2018 14:21
44 us Denver Clouds -2 1005 90 10000 8 342 02.08.2018 14:21
45 de Oberstdorf Rain 12 1019 58 7563 2 157 02.08.2018 14:21
46 de Hannover Clouds 10 1023 57 10000 30 300 02.08.2018 14:21
47 de Nürnberg Clear 11 1022 43 10000 19 310 02.08.2018 14:21
48 de Helgoland Clouds 8 1023 61 10000 39 320 02.08.2018 14:22
49 de Torfhaus Clouds 10 1022 42 10000 3 115 02.08.2018 14:22
50 es Barcelona Clouds 15 1018 63 10000 24 70 02.08.2018 14:22
51 pt Lissabon Clouds 18 1015 55 10000 7 0 02.08.2018 14:22
52 za Kapstadt Clear 23 1015 64 10000 9 290 02.08.2018 14:22
53 ca Montreal Clouds -3 1004 68 10000 4 20 02.08.2018 14:22
54 eg Kairo Clear 26 1018 34 10000 28 360 02.08.2018 14:22
55 bo Potisi Clear 5 1017 63 10000 5 292 02.08.2018 14:22
56 in Jagatsukh Clouds 9 1017 96 1225 10 222 02.08.2018 14:22
57 ru Werchojansk Clouds -11 1021 83 10000 1 173 02.08.2018 14:22
58 gl Nuuk Clouds 1 1008 69 10000 2 0 02.08.2018 14:22
59 ru Moskau Clouds 14 1013 58 10000 22 210 02.08.2018 14:22
60 gr Athen Clouds 21 1021 28 10000 19 180 02.08.2018 14:22
61 no Hammerfest Snow 1 1007 75 10000 6 0 02.08.2018 14:22
62 uy Montevideo Clear 17 1018 94 10000 20 50 02.08.2018 14:22
63 ar Ushuaia Drizzle 6 1007 87 10000 4 90 02.08.2018 14:22
64 au Darwin Clear 29 1009 74 10000 9 270 02.08.2018 14:22
65 id Jakarta Clouds 31 1008 55 6000 19 20 02.08.2018 14:22
66 in Mumbai Smoke 33 1008 58 4000 20 290 02.08.2018 14:22
67 cn Lhasa Clouds 14 998 15 10000 35 214 02.08.2018 14:22
68 iq Bagdad Clear 36 1011 20 10000 20 300 02.08.2018 14:22
69 ke Nairobi Rain 24 1021 60 10000 19 170 02.08.2018 14:22
70 at Wien Rain 9 1025 74 10000 2 341 02.08.2018 14:22
71 it Palermo Clouds 19 1014 82 10000 13 20 02.08.2018 14:22
72 is Reykjavik Rain 7 1019 76 10000 17 90 02.08.2018 14:22
73 ru Jakutsk Clear -2 1023 40 10000 11 280 02.08.2018 14:22
74 jp Tokio Clouds 14 1019 77 10000 43 60 02.08.2018 14:22
75 br Rio de Janeiro Clouds 21 1015 88 10000 7 310 02.08.2018 14:22
76 ar Esquel Mist 2 1015 100 3800 7 280 02.08.2018 14:22
77 bo La Paz Clouds 5 1036 70 10000 7 340 02.08.2018 14:22
78 ec San Cristobal Clouds 25 1010 85 10000 9 91 02.08.2018 14:22
79 de Stuttgart Clouds 12 1022 58 10000 9 10 02.08.2018 14:22
80 bs Nassau Clear 22 1016 100 10000 4 0 02.08.2018 14:22
81 us Honolulu Clouds 23 1019 64 10000 6 10 02.08.2018 14:22
82 de Bremen Clouds 10 1023 53 10000 32 330 02.08.2018 14:22
83 de Frankfurt Clear 9 1024 46 10000 11 40 02.08.2018 14:22
84 de Dresden Clouds 8 1020 49 10000 24 310 02.08.2018 14:22
85 de Freiburg Clouds 14 1018 68 10000 14 263 02.08.2018 14:22
86 ad Andorra la Vella Clouds 9 1016 58 10000 9 0 02.08.2018 14:22
87 de Magdeburg Clouds 11 1021 53 10000 3 264 02.08.2018 14:22
88 tr Alanya Clear 26 1020 8 10000 17 320 02.08.2018 14:22
89 us Los Angeles Clouds 13 1013 67 10000 5 225 02.08.2018 14:22
90 us Death Valley Clouds 9 1006 25 10000 6 337 02.08.2018 14:22
91 es Palma de Mallorca Clouds 17 1016 67 10000 13 90 02.08.2018 14:22
92 es Sevilla Clouds 21 1014 56 10000 4 0 02.08.2018 14:22
93 fr Paris Clear 14 1023 54 10000 19 20 02.08.2018 14:22
94 sb Honiara Clouds 26 1011 89 10000 9 121 02.08.2018 14:22
95 ck Avarua Clouds 26 1016 78 10000 22 90 02.08.2018 14:22
96 ar Buenos Aires Clouds 19 1016 82 10000 19 20 02.08.2018 14:22
97 fr Nizza Clouds 16 1019 72 10000 19 100 02.08.2018 14:22
98 us New York Clouds 2 1009 65 10000 15 270 02.08.2018 14:22
99 au Sydney Clear 13 1015 41 10000 22 270 02.08.2018 14:22
100 gb London Clouds 12 1028 50 10000 24 110 02.08.2018 14:22
101 ma Casablanca Clouds 19 1016 59 10000 15 340 02.08.2018 14:23
102 ma Marrakesch Clear 22 1014 46 10000 11 40 02.08.2018 14:23
103 ch Andermatt Clouds 8 1019 47 10000 20 50 02.08.2018 14:23
104 ch Bern Clouds 15 1018 48 10000 13 350 02.08.2018 14:23
105 at Innsbruck Clouds 13 1019 50 10000 11 70 02.08.2018 14:23
106 it Rom Clear 14 1017 67 10000 7 110 02.08.2018 14:23
107 tr Ankara Clouds 15 1021 38 10000 13 260 02.08.2018 14:23
108 tr Istanbul Clouds 16 1023 72 10000 13 240 02.08.2018 14:23
109 et Addis Abeba Clouds 23 1026 38 10000 11 140 02.08.2018 14:23
110 ru Amderma Clouds 3 1016 80 10000 34 200 02.08.2018 14:23
111 ru Surgut Clear 6 1039 36 10000 18 200 02.08.2018 14:23
112 mn Ulaanbaatar Clouds 12 1015 28 10000 25 320 02.08.2018 14:23
113 mn Uliastai Clouds 3 1016 89 10000 4 273 02.08.2018 14:23
114 us Chicago Clouds 0 1019 75 10000 9 280 02.08.2018 14:23
115 cl Santiago Fog 10 1014 100 1200 1 282 02.08.2018 14:23
116 us Miami Clouds 22 1016 73 10000 9 330 02.08.2018 14:23
117 us Nome Clear 3 1024 52 10000 15 40 02.08.2018 14:23
118 us Fairbanks Clear -1 1027 55 10000 6 27 02.08.2018 14:23
119 cn Peking Clouds 15 999 65 10000 10 124 02.08.2018 14:23
120 mv Male Clouds 32 1010 70 10000 19 260 02.08.2018 14:23
121 no Oslo Clear 8 1011 37 10000 10 312 02.08.2018 14:23
122 se Stockholm Rain 2 1003 87 10000 22 330 02.08.2018 14:23
123 ru Anadyr Clear -10 1025 92 10000 14 360 02.08.2018 14:23
124 qa Doha Clear 37 1011 14 10000 15 110 02.08.2018 14:23
125 nz Wellington Clouds 15 1010 82 10000 19 350 02.08.2018 14:23
126 cd Kisangani Clouds 31 1009 53 10000 6 103 02.08.2018 14:23
127 pe Cusco Clouds 6 1021 95 10000 2 140 02.08.2018 14:23
128 es Madrid Clouds 13 1014 77 10000 4 0 02.08.2018 14:23